[[{"header":{"parameterUnit":"m.s-1","parameterCategory":1,"la1":30.2991,"la2":30.254,"lo1":-89.0895,"lo2":-89.0444,"dy":0.0017,"dx":0.0017,"nx":28,"ny":28,"refTime":"2024-07-09T21:00:00:Z","depth":0,"parameterNumber":2,"parameterNumberName":"U-component_of_WINDS"},"data":[0,0,0,0,0,0,0,0,0,0,0,0,0,0,0,0,0,0,0,0,0,0,0,0,0,0,0,0,0,0,0,0,0,0,0,0,0,0,0,0,0,0,0,0,0,0,0,0,0,0,0,0,0,0,0,0,0,0,0.7784,0.7785,0,0.7848,0.7849,0.785,0.7859,0.7858,0.7857,0.7857,0.7928,0.793,0.7932,0,0,0,0,0,0,0,0,0,0,0,0,0,0.7675,0.7677,0.7784,0.7785,0.7786,0.7848,0.7849,0.785,0.7859,0.7858,0.7857,0.7857,0.7927,0.793,0.7933,0,0,0,0,0,0,0,0,0,0,0,0,0,0.7729,0.7678,0.7784,0.7798,0.78,0.7848,0.7849,0.785,0.7859,0.7858,0.7857,0.7856,0.7926,0.7929,0.7933,0.7974,0,0,0.7944,0.7946,0,0,0,0,0,0,0,0,0.7726,0.7733,0.7795,0.7797,0.7799,0.7844,0.7836,0.7892,0.7859,0.7837,0.7857,0.7856,0.7901,0.7907,0.7921,0.7977,0.798,0.7945,0.7947,0.7948,0.7949,0,0,0,0,0,0,0,0.7722,0.7731,0.781,0.7796,0.7798,0.7802,0.7809,0.7847,0.7873,0.7838,0.7839,0.7846,0.7902,0.7917,0.7923,0.7981,0.7945,0.7948,0.795,0.7951,0.8075,0.8076,0,0,0,0,0,0,0.7715,0.7727,0.7808,0.7812,0.7759,0.7805,0.7812,0.7831,0.7873,0.7878,0.7847,0.7847,0.7911,0.7918,0.7925,0.7976,0.7948,0.7952,0.7954,0.8074,0.8075,0.8077,0,0,0,0,0,0,0.7713,0.7722,0.7805,0.777,0.778,0.7808,0.7828,0.7833,0.7848,0.7879,0.7885,0.7858,0.7911,0.792,0.7961,0.7979,0.7954,0.7957,0.8073,0.8074,0.8076,0.8079,0,0,0,0,0,0,0.771,0.7722,0.7736,0.777,0.7782,0.7839,0.7829,0.7835,0.7853,0.7853,0.7891,0.7896,0.7911,0.7956,0.7965,0.7984,0.796,0.8071,0.8074,0.8075,0.8077,0.808,0.8083,0,0,0,0,0,0.7706,0.7736,0.7737,0.7747,0.7801,0.784,0.7847,0.7863,0.7855,0.7871,0.7891,0.7895,0.7975,0.796,0.7971,0.799,0.807,0.8073,0.8075,0.8076,0.808,0.8083,0,0,0,0,0,0,0.7706,0.774,0.7742,0.7783,0.7808,0.7841,0.7862,0.7866,0.7895,0.7894,0.7913,0.7922,0.7962,0.798,0.7963,0.8032,0.8022,0.8027,0.8019,0.8023,0.8026,0.8021,0.7963,0,0,0,0,0,0.771,0.7737,0.7766,0.78,0.7812,0.7835,0.7852,0.7862,0.7889,0.79,0.7924,0.7952,0.7983,0.8004,0.8035,0.8079,0.8088,0.8098,0.8101,0.8103,0.8107,0.8133,0.8138,0.8084,0.8084,0.8084,0,0,0.772,0.7742,0.7759,0.7801,0.7821,0.785,0.7844,0.7875,0.7897,0.7906,0.7946,0.7964,0.7997,0.804,0.806,0.8056,0.8124,0.8106,0.8107,0.8111,0.8136,0.8141,0.8145,0.8086,0.8086,0.8086,0,0,0.7753,0.7772,0.7802,0.7823,0.7853,0.7867,0.7875,0.7907,0.7919,0.7959,0.7966,0.7993,0.8047,0.807,0.8089,0.8129,0.8135,0.8139,0.8154,0.8179,0.8183,0.8187,0.8203,0.8208,0.8143,0.8143,0.8143,0,0.7763,0.7805,0.7818,0.7849,0.7867,0.7874,0.7906,0.7925,0.7965,0.7978,0.7972,0.804,0.8062,0.8111,0.8121,0.8136,0.8146,0.8136,0.8181,0.8185,0.8189,0.8205,0.821,0.8143,0.8143,0.8143,0.8143,0,0.7816,0.7845,0.7866,0.7902,0.7923,0.7954,0.7973,0.7993,0.8,0.8016,0.8057,0.8084,0.812,0.8132,0.814,0.8183,0.8179,0.8177,0.8168,0.8195,0.8209,0.8215,0.8144,0.8144,0.8144,0.8144,0,0,0.7853,0.7894,0.7902,0.7918,0.7951,0.7975,0.8007,0.804,0.8058,0.8085,0.8113,0.8157,0.8155,0.8177,0.8187,0.8209,0.8241,0.8204,0.8205,0.8211,0.829,0.8293,0.8299,0.8243,0.8244,0.8245,0.8288,0,0.7891,0.7946,0.7958,0.8006,0.8034,0.804,0.8067,0.8092,0.8107,0.8134,0.8151,0.8183,0.8177,0.819,0.8212,0.8232,0.8257,0.8229,0.8272,0.8273,0.8265,0.8307,0.831,0.8349,0.8294,0.8295,0.8295,0,0.7943,0.7969,0.8019,0.8049,0.8061,0.8086,0.8117,0.8143,0.8171,0.818,0.8203,0.8211,0.8246,0.8233,0.8282,0.8263,0.8281,0.8293,0.8295,0.8301,0.8287,0.8315,0.8361,0.8368,0.8304,0.8304,0.8303,0,0.7967,0.8014,0.805,0.8064,0.8099,0.8116,0.8132,0.8159,0.8178,0.8206,0.8219,0.8252,0.827,0.8296,0.8313,0.8302,0.8361,0.835,0.8372,0.8371,0.8386,0.8385,0.8436,0.8394,0.8394,0.8394,0.8394,0,0.8009,0.804,0.8061,0.8084,0.8119,0.8132,0.8167,0.8183,0.8207,0.8234,0.8241,0.8267,0.8287,0.8316,0.8329,0.8368,0.8376,0.8386,0.839,0.8387,0.8386,0.84,0.8399,0.8396,0.8395,0.8395,0.8395,0,0.8042,0.8057,0.8097,0.8126,0.8134,0.8159,0.8185,0.8207,0.8222,0.8256,0.8265,0.8288,0.8322,0.8341,0.8385,0.8394,0.8438,0.8439,0.8428,0.843,0.8451,0.845,0.8516,0.8526,0.8475,0.8476,0.8476,0,0.8069,0.8093,0.8123,0.8141,0.8156,0.8185,0.8204,0.8218,0.8238,0.8271,0.8291,0.8324,0.8353,0.8407,0.8429,0.8463,0.8466,0.8487,0.8471,0.8467,0.8468,0.8467,0.847,0.849,0.8491,0.8491,0.8491,0,0.8116,0.8122,0.8148,0.8177,0.82,0.8224,0.8248,0.8262,0.8281,0.8303,0.8337,0.8359,0.8402,0.8436,0.8471,0.8489,0.8494,0.8495,0.8503,0.8501,0.8494,0.8499,0.8437,0.8495,0.8494,0.8494,0.8494,0.8494,0.8148,0.8169,0.8194,0.8223,0.8242,0.8264,0.8287,0.8303,0.8331,0.8366,0.8373,0.8409,0.8437,0.8484,0.8503,0.8532,0.8529,0.8539,0.8542,0.8544,0.8546,0.8487,0.8538,0.8538,0.8538,0.8538,0.8538,0,0.8196,0.8212,0.8238,0.8271,0.8294,0.8294,0.832,0.8341,0.8372,0.8396,0.8423,0.8462,0.8495,0.8519,0.8553,0.8572,0.8575,0.8581,0.8581,0.8585,0.8546,0.8537,0.8577,0.8577,0.8577,0.8577,0.8577,0.8577,0.8224,0.826,0.8269,0.8315,0.8331,0.8365,0.838,0.8401,0.8421,0.8463,0.849,0.8504,0.8529,0.8565,0.8596,0.8602,0.8615,0.862,0.8627,0.8592,0.8587,0.8584,0.8575,0.8623,0.8623,0.8664,0.8664,0.8664]},{"header":{"parameterUnit":"m.s-1","parameterCategory":1,"la1":30.2991,"la2":30.254,"lo1":-89.0895,"lo2":-89.0444,"dy":0.0017,"dx":0.0017,"nx":28,"ny":28,"refTime":"2024-07-09T21:00:00:Z","depth":0,"parameterNumber":3,"parameterNumberName":"V-component_of_WINDS"},"data":[0,0,0,0,0,0,0,0,0,0,0,0,0,0,0,0,0,0,0,0,0,0,0,0,0,0,0,0,0,0,0,0,0,0,0,0,0,0,0,0,0,0,0,0,0,0,0,0,0,0,0,0,0,0,0,0,0,0,1.7085,1.7084,0,1.7033,1.7032,1.7032,1.7029,1.703,1.703,1.7031,1.6977,1.6975,1.6973,0,0,0,0,0,0,0,0,0,0,0,0,0,1.7182,1.7181,1.7085,1.7084,1.7083,1.7033,1.7032,1.7032,1.7029,1.703,1.7031,1.7031,1.6978,1.6975,1.6973,0,0,0,0,0,0,0,0,0,0,0,0,0,1.7136,1.718,1.7085,1.7076,1.7075,1.7033,1.7032,1.7032,1.7029,1.703,1.7031,1.7032,1.6979,1.6976,1.6973,1.6936,0,0,1.6964,1.6962,0,0,0,0,0,0,0,0,1.7139,1.7133,1.7078,1.7077,1.7075,1.7039,1.7047,1.6999,1.7029,1.7046,1.7031,1.7032,1.6997,1.6992,1.6981,1.6934,1.6931,1.6963,1.6961,1.696,1.6959,0,0,0,0,0,0,0,1.7142,1.7135,1.7064,1.7077,1.7075,1.7075,1.707,1.7038,1.7017,1.7045,1.7045,1.7038,1.6996,1.6983,1.6979,1.693,1.6963,1.6961,1.6959,1.6958,1.6853,1.6853,0,0,0,0,0,0,1.7147,1.7137,1.7066,1.7063,1.711,1.7073,1.7066,1.7049,1.7017,1.7013,1.7038,1.7039,1.6988,1.6983,1.6977,1.6934,1.696,1.6957,1.6956,1.6854,1.6853,1.6852,0,0,0,0,0,0,1.7149,1.714,1.7068,1.71,1.7091,1.707,1.7051,1.7048,1.7035,1.7012,1.7008,1.7029,1.6989,1.6982,1.6947,1.6932,1.6956,1.6953,1.6856,1.6854,1.6853,1.6846,0,0,0,0,0,0,1.7152,1.7141,1.7127,1.71,1.7089,1.7038,1.705,1.7046,1.703,1.7031,1.7003,1.6999,1.6989,1.6952,1.6944,1.6928,1.6951,1.6857,1.6855,1.6853,1.6848,1.6845,1.6842,0,0,0,0,0,1.7155,1.7126,1.7126,1.7117,1.707,1.7037,1.7031,1.7021,1.7029,1.7015,1.7,1.7,1.6935,1.6948,1.694,1.6923,1.6858,1.6855,1.6853,1.6849,1.6845,1.6842,0,0,0,0,0,0,1.7151,1.7122,1.7122,1.7083,1.7063,1.7037,1.7018,1.7017,1.6993,1.6995,1.6982,1.6976,1.6942,1.6929,1.6944,1.6887,1.6897,1.6893,1.6897,1.6893,1.6891,1.6895,1.6949,0,0,0,0,0,1.7146,1.7121,1.7097,1.7066,1.7056,1.7039,1.7024,1.7018,1.6996,1.6987,1.697,1.6949,1.6924,1.6908,1.6884,1.6846,1.6841,1.683,1.6828,1.6826,1.6822,1.6803,1.6799,1.6845,1.6845,1.6845,0,0,1.7134,1.7116,1.7101,1.7064,1.7048,1.7023,1.7031,1.7004,1.6986,1.6983,1.695,1.6937,1.6912,1.6877,1.686,1.6865,1.6809,1.6823,1.6821,1.6819,1.6801,1.6796,1.6793,1.6844,1.6844,1.6844,0,0,1.7101,1.7084,1.7057,1.7041,1.7016,1.7005,1.6999,1.6974,1.6965,1.6932,1.6929,1.6908,1.6865,1.6848,1.6834,1.6797,1.6797,1.679,1.6776,1.6757,1.6754,1.675,1.6739,1.6734,1.6787,1.6787,1.6787,0,1.709,1.7053,1.7043,1.7016,1.7001,1.6998,1.6971,1.6956,1.6924,1.6914,1.692,1.6867,1.6851,1.6812,1.6804,1.6792,1.6785,1.6793,1.6755,1.6752,1.6748,1.6737,1.6733,1.6786,1.6786,1.6786,1.6786,0,1.7041,1.7015,1.6996,1.6967,1.695,1.6923,1.691,1.6894,1.689,1.6879,1.6846,1.6826,1.6799,1.6789,1.6784,1.675,1.6754,1.6758,1.6768,1.6744,1.6733,1.6728,1.6785,1.6785,1.6786,1.6786,0,0,1.7002,1.697,1.6963,1.6951,1.6924,1.6905,1.6879,1.6853,1.684,1.6818,1.6797,1.6762,1.6766,1.675,1.6743,1.6727,1.6702,1.6733,1.6732,1.6729,1.6665,1.6663,1.6658,1.6701,1.67,1.67,1.6668,0,1.6967,1.6921,1.6912,1.6872,1.685,1.6848,1.6825,1.6807,1.6797,1.6776,1.6765,1.674,1.6746,1.6737,1.6721,1.6708,1.6689,1.671,1.6682,1.6681,1.6689,1.6652,1.665,1.662,1.6663,1.6662,1.6662,0,1.6919,1.6899,1.6857,1.6836,1.6826,1.6806,1.6782,1.6762,1.6742,1.6736,1.672,1.6716,1.669,1.6701,1.6666,1.6681,1.6669,1.6661,1.666,1.6657,1.667,1.665,1.6611,1.6607,1.6655,1.6655,1.6656,0,1.6897,1.6859,1.6829,1.6818,1.6792,1.6779,1.6768,1.6748,1.6734,1.6714,1.6705,1.6681,1.6669,1.6651,1.6641,1.665,1.6607,1.6618,1.6602,1.6602,1.6593,1.6594,1.6553,1.6584,1.6584,1.6584,1.6584,0,1.6859,1.6834,1.6819,1.6801,1.6773,1.6764,1.6737,1.6726,1.6709,1.669,1.6686,1.6668,1.6656,1.6636,1.6628,1.6601,1.6595,1.659,1.6588,1.659,1.6591,1.6582,1.6585,1.6583,1.6583,1.6584,1.6584,0,1.683,1.6818,1.6786,1.6765,1.676,1.674,1.6722,1.6705,1.6696,1.6671,1.6664,1.6649,1.6626,1.6615,1.6585,1.658,1.655,1.6549,1.6557,1.6556,1.6542,1.6544,1.6494,1.6488,1.6523,1.6523,1.6522,0,1.6806,1.6787,1.6765,1.6751,1.674,1.6719,1.6705,1.6695,1.6681,1.6658,1.6644,1.6621,1.6602,1.6565,1.6551,1.653,1.6529,1.6513,1.6525,1.6529,1.653,1.6532,1.653,1.6511,1.651,1.651,1.651,0,1.6767,1.6763,1.6743,1.6721,1.6705,1.6687,1.667,1.6659,1.6648,1.6632,1.6608,1.6594,1.6565,1.6542,1.652,1.6509,1.6508,1.6506,1.6502,1.6504,1.651,1.6508,1.6552,1.6507,1.6508,1.6508,1.6508,1.6508,1.674,1.6724,1.6706,1.6684,1.6671,1.6655,1.6639,1.6628,1.6608,1.6585,1.6581,1.6556,1.6539,1.6509,1.6497,1.6478,1.6482,1.6475,1.6473,1.6472,1.6472,1.6513,1.6474,1.6474,1.6474,1.6474,1.6474,0,1.6701,1.669,1.6671,1.6647,1.6631,1.6632,1.6614,1.66,1.6578,1.6562,1.6544,1.6519,1.6497,1.6483,1.6462,1.6449,1.6449,1.6444,1.6445,1.6443,1.6469,1.6476,1.6445,1.6445,1.6445,1.6445,1.6445,1.6445,1.6679,1.6652,1.6647,1.6613,1.6603,1.6579,1.6569,1.6555,1.6542,1.6514,1.6497,1.6488,1.6473,1.6451,1.6432,1.6428,1.6421,1.6417,1.6413,1.6438,1.6441,1.6444,1.645,1.6415,1.6415,1.6389,1.6389,1.6389]}]]